Weather History for Topeka Forbes, KS

Change the Weather History Date:

Monday, September 10, 2012

  Actual Average Record
Temperature  
Mean Temperature 66 °F -  
Max Temperature 84 °F 84 °F 100 °F (1984)
Min Temperature 48 °F 57 °F 36 °F (1976)
Cooling Degree Days 1    
Growing Degree Days 16 (Base 50)    
Moisture  
Dew Point 50 °F    
Average Humidity 60    
Maximum Humidity 89    
Minimum Humidity 31    
Precipitation  
Precipitation 0.00 in - - ()
Sea Level Pressure  
Sea Level Pressure 30.08 in    
Wind  
Wind Speed 5 mph (SSE)    
Max Wind Speed 15 mph    
Max Gust Speed 21 mph    
Visibility 10 miles    
Events      
Averages and records for this station are not official NWS values.
T = Trace of Precipitation, MM = Missing Value Source: NWS Daily Summary

Daily Weather History Graph

Daily Weather History Graph

Search for Another Location

Airport:

Trip Planner

Search our weather history database for the weather conditions in past years. The results will help you decide how hot, cold, wet, or windy it might be!

Date:

Astronomy

Sep. 10, 2012 Rise Set
Actual Time 7:00 AM CDT 7:38 PM CDT
Civil Twilight 6:33 AM CDT 8:04 PM CDT
Nautical Twilight 6:01 AM CDT 8:36 PM CDT
Astronomical Twilight 5:28 AM CDT 9:09 PM CDT
Moon 1:24 AM CDT (9/10) 4:06 PM CDT (9/10)
Length of Visible Light 13h 31m
Length of Day
12h 38m
Waning Crescent, 30% of the Moon is Illuminated
Sep 10
Waning Crescent
Sep 15
New
Sep 22
First Quarter
Sep 29
Full
Oct 8
Last Quarter

Hourly Weather History & Observations

Time (CDT) Temp. Dew Point Humidity Pressure Visibility Wind Dir Wind Speed Gust Speed Precip Events Conditions
12:53 AM 54.0 °F 48.9 °F 83% 30.14 in 10.0 mi Calm Calm - N/A   Clear
1:53 AM 52.0 °F 48.0 °F 86% 30.14 in 10.0 mi Calm Calm - N/A   Clear
2:53 AM 53.1 °F 48.0 °F 83% 30.13 in 10.0 mi ESE 3.5 mph - N/A   Clear
3:53 AM 51.1 °F 46.9 °F 86% 30.13 in 10.0 mi Calm Calm - N/A   Clear
4:53 AM 51.1 °F 46.9 °F 86% 30.13 in 10.0 mi Calm Calm - N/A   Clear
5:53 AM 50.0 °F 46.0 °F 86% 30.13 in 10.0 mi Calm Calm - N/A   Clear
6:53 AM 48.0 °F 45.0 °F 89% 30.14 in 10.0 mi ESE 4.6 mph - N/A   Clear
7:53 AM 52.0 °F 48.0 °F 86% 30.16 in 10.0 mi SE 3.5 mph - N/A   Clear
8:53 AM 62.1 °F 52.0 °F 70% 30.16 in 10.0 mi SSE 8.1 mph - N/A   Clear
9:53 AM 69.1 °F 52.0 °F 54% 30.15 in 10.0 mi South 11.5 mph - N/A   Clear
10:53 AM 73.0 °F 52.0 °F 48% 30.14 in 10.0 mi SSE 13.8 mph 20.7 mph N/A   Clear
11:53 AM 75.9 °F 50.0 °F 40% 30.12 in 10.0 mi South 13.8 mph - N/A   Clear
12:53 PM 79.0 °F 50.0 °F 36% 30.10 in 10.0 mi SSE 15.0 mph - N/A   Clear
2:53 PM 82.0 °F 48.9 °F 31% 30.04 in 10.0 mi SSE 12.7 mph 19.6 mph N/A   Clear
3:53 PM 84.0 °F 50.0 °F 31% 30.02 in 10.0 mi SSE 12.7 mph - N/A   Clear
4:53 PM 84.0 °F 50.0 °F 31% 30.01 in 10.0 mi SSE 11.5 mph - N/A   Clear
5:53 PM 82.9 °F 50.0 °F 32% 30.00 in 10.0 mi South 12.7 mph - N/A   Clear
6:53 PM 80.1 °F 51.1 °F 36% 30.00 in 10.0 mi SSE 11.5 mph - N/A   Clear
7:53 PM 75.0 °F 52.0 °F 44% 29.99 in 10.0 mi SE 10.4 mph - N/A   Clear
8:53 PM 69.1 °F 52.0 °F 54% 29.99 in 10.0 mi SE 8.1 mph - N/A   Clear
9:53 PM 69.1 °F 52.0 °F 54% 29.99 in 10.0 mi SE 9.2 mph - N/A   Clear
10:53 PM 66.0 °F 53.1 °F 63% 29.99 in 10.0 mi SSE 8.1 mph - N/A   Clear
11:53 PM 64.9 °F 52.0 °F 63% 29.99 in 10.0 mi SSE 6.9 mph - N/A   Clear